Regional Weather Roundup
Issued by NWS

Home | Current Version | Previous Version | Text Only | Print | Product List | Glossary On
Versions: 1 2 3 4 5 6 7 8 9 10 11 12 13 14 15 16 17 18 19 20 21 22 23 24 25 26 27 28 29 30 31 32 33 34 35 36 37 38 39 40 41 42 43 44 45 46 47 48 49 50
000
ASUS43 KDMX 260307
RWRIA

WEATHER ROUNDUP FOR IOWA
NATIONAL WEATHER SERVICE DES MOINES IA
900 PM CST TUE NOV 25 2014

NOTE: "FAIR" INDICATES FEW OR NO CLOUDS BELOW 12,000 FEET WITH NO
SIGNIFICANT WEATHER AND/OR OBSTRUCTIONS TO VISIBILITY.

* - THESE STATIONS ARE NOT NWS STATIONS...THUS NOT UNDER NWS
QUALITY CONTROL.  THEY ALSO DO NOT REPORT WEATHER SUCH
AS PRECIPITATION OR FOG.

IAZ001>003-012>014-020>022-031>034-043>046-260400-
   NORTHWEST IOWA

CITY           SKY/WX    TMP DP  RH WIND       PRES   REMARKS
CARROLL *      CLOUDY    30  21  69 SE9       29.93F WCI  22
CHEROKEE *     CLOUDY    32  20  62 S10       29.90S WCI  24
DENISON *      CLOUDY    34  19  55 S18G25    29.89F WCI  23
LE MARS *      MIX PCPN  34  30  86 SE10G16   29.87F WCI  26
ORANGE CITY *  LGT SNOW  34  21  60 S7        29.86F WCI  28
SHELDON *      CLOUDY    32  21  64 SE14      29.86F WCI  22
SIOUX CITY     LGT RAIN  35  30  82 SE9       29.87F WCI  28
SPENCER        CLOUDY    31  17  56 SE14      29.91F WCI  21
STORM LAKE *   CLOUDY    30  19  64 SE16      29.90F WCI  19
$$

IAZ055>058-069>071-079>083-090>094-260400-
   SOUTHWEST IOWA

CITY           SKY/WX    TMP DP  RH WIND       PRES   REMARKS
ATLANTIC *     CLOUDY    34  19  55 S12       29.94F WCI  25
AUDUBON *      MOCLDY    32  18  55 S10       29.94F WCI  24
CLARINDA *     CLOUDY    36  19  51 S10       29.99F WCI  28
COUNCIL BLFS * CLOUDY    37  23  56 S13       29.90F WCI  29
CRESTON *      CLOUDY    30  19  64 SE12      29.99F WCI  21
HARLAN  *      CLOUDY    34  21  60 S14G20    29.96S WCI  24
LAMONI         MOCLDY    30  16  56 SE10      30.02F WCI  21
RED OAK *      CLOUDY    36  21  55 S12       29.96S WCI  27
SHENANDOAH *   CLOUDY    36  21  55 S15G21    29.96S WCI  26
$$

IAZ047>049-059>061-072>074-084-260400-
   CENTRAL IOWA

CITY           SKY/WX    TMP DP  RH WIND       PRES   REMARKS
AMES           PTCLDY    25  15  66 SE8       30.02F WCI  16
ANKENY *       PTCLDY    27  14  59 SE7       30.03S WCI  19
CHARITON *     CLOUDY    28  16  59 SE10      30.04F WCI  19
DES MOINES     MOCLDY    29  13  51 SE10      30.03F WCI  20
GRINNELL*      CLEAR     23  18  80 SE6       30.06F WCI  16
KNOXVILLE *    PTCLDY    27  14  59 SE8       30.04F WCI  18
MARSHALLTOWN   PTCLDY    21  15  78 SE9       30.04F WCI  11
PELLA *        CLEAR     27  17  67 SE6       30.07F WCI  20
PERRY *        MOCLDY    30  20  67 SE9       29.99S WCI  22
$$

IAZ004>006-015-016-023>025-035-036-260400-
   NORTH CENTRAL IOWA

CITY           SKY/WX    TMP DP  RH WIND       PRES   REMARKS
ALGONA *       CLOUDY    28  16  59 SE17G23   29.96F WCI  16
CLARION *      PTCLDY    25  18  74 SE16      29.99F WCI  12
ESTHERVILLE    CLOUDY    27  15  61 SE16      29.93F WCI  15
FORT DODGE *   MOCLDY    28  12  50 SE10      29.98S WCI  19
MASON CITY     PTCLDY    20  16  84 SE9       30.02F WCI   9
FOREST CITY *    N/A     25  19  80 SE12      29.99F WCI  14
IOWA FALLS *     N/A     23  17  78 SE8       30.03F WCI  13
$$

IAZ007>011-017>019-026>030-037>042-050>054-066-260400-
   NORTHEAST IOWA

CITY           SKY/WX    TMP DP  RH WIND       PRES   REMARKS
CEDAR RAPIDS   CLEAR     19  17  92 SE7       30.10S WCI  10
CHARLES CITY * MOCLDY    19  14  79 SE10      30.05F WCI   8
CLINTON *      CLEAR     12   7  79 SE6       30.17S WCI   3
DECORAH *      CLOUDY    16  12  86 SE6       30.06F WCI   7
DUBUQUE        CLEAR     13  11  92 S6        30.10S WCI   4
MONTICELLO *   CLEAR     14  12  92 CALM      30.12S
OELWEIN *      PTCLDY    16  12  86 SE8       30.08S WCI   5
WATERLOO       MOCLDY    19  15  84 SE8       30.07S WCI   9
$$

IAZ064-065-067-068-078-260400-
   EAST CENTRAL IOWA

CITY           SKY/WX    TMP DP  RH WIND       PRES   REMARKS
DAVENPORT      CLEAR     17  13  84 SE7       30.15S WCI   8
IOWA CITY      CLEAR     19  16  88 SE5       30.14S WCI  12
MT. PLEASANT * CLEAR     20  17  90 SE5       30.14R WCI  13
MUSCATINE *    CLEAR     16  14  93 CALM      30.16R
QUAD CITIES    CLEAR     17  13  84 E5        30.15S WCI  10
$$

IAZ062-063-075>077-085>089-095>099-260400-
   SOUTHEAST IOWA

CITY           SKY/WX    TMP DP  RH WIND       PRES   REMARKS
BURLINGTON     CLEAR     24  19  81 SE5       30.13F WCI  18
FAIRFIELD *    CLEAR     23  18  80 SE8       30.11F WCI  14
FORT MADISON * CLEAR     25  21  86 SE3       30.14S
KEOKUK *       CLEAR     27  23  86 SE5       30.13S WCI  21
OSKALOOSA *      N/A     23  19  86 SE9       30.09S WCI  13
CENTERVILLE *    N/A     25  18  74 SE7       30.09S WCI  17
OTTUMWA        CLEAR     25  18  74 S7        30.09S WCI  17
WASHINGTON *   PTCLDY    18  18 100 SE8       30.12S WCI   7
$$

ABBREVIATIONS USED IN REMARKS
   TC - TEMPERATURES IN CELSIUS
  WCI - WIND CHILL INDEX
   HX - HEAT INDEX
  VSB - VISIBILITY
$$




USA.gov is the U.S. government's official web portal to all federal, state and local government web resources and services.